[[{"header":{"parameterUnit":"m.s-1","parameterCategory":2,"la1":30.2991,"la2":30.254,"lo1":-89.0895,"lo2":-89.0444,"dy":0.0017,"dx":0.0017,"nx":28,"ny":28,"refTime":"2025-08-02T09:00:00:Z","depth":"0","parameterNumber":2,"parameterNumberName":"U-component_of_CURRENTS"},"data":[0,0,0,0,0,0,0,0,0,0,0,0,0,0,0,0,0,0,0,0,0,0,0,0,0,0,0,0,0,0,0,0,0,0,0,0,0,0,0,0,0,0,0,0,0,0,0,0,0,0,0,0,0,0,0,0,0,0,0.198,0.198,0,0.1946,0.1945,0.1944,0.1909,0.1909,0.1908,0.1908,0.1892,0.1891,0.1891,0,0,0,0,0,0,0,0,0,0,0,0,0,0.1987,0.1987,0.198,0.198,0.198,0.1946,0.1945,0.1944,0.1909,0.1909,0.1908,0.1908,0.1892,0.1891,0.1891,0,0,0,0,0,0,0,0,0,0,0,0,0,0.1967,0.1987,0.198,0.1962,0.196,0.1946,0.1945,0.1944,0.1909,0.1909,0.1908,0.1908,0.1892,0.1891,0.1891,0.1889,0,0,0.1889,0.1889,0,0,0,0,0,0,0,0,0.1968,0.1966,0.1964,0.1963,0.1961,0.1935,0.1941,0.1928,0.1909,0.1923,0.1908,0.1908,0.1911,0.1909,0.1896,0.1889,0.1888,0.1889,0.1889,0.1888,0.1888,0,0,0,0,0,0,0,0.197,0.1967,0.1962,0.1965,0.1963,0.1946,0.1942,0.1938,0.1915,0.1922,0.1921,0.1924,0.191,0.1896,0.1895,0.1888,0.1889,0.1889,0.1888,0.1888,0.1961,0.1963,0,0,0,0,0,0,0.1985,0.1969,0.1963,0.1961,0.197,0.1946,0.1942,0.194,0.1915,0.1912,0.1924,0.1923,0.1897,0.1896,0.1895,0.1977,0.1888,0.1888,0.1888,0.1959,0.1961,0.1964,0,0,0,0,0,0,0.1985,0.1984,0.1965,0.1968,0.1965,0.1947,0.1944,0.1939,0.194,0.1917,0.1913,0.1931,0.1897,0.1896,0.1916,0.1973,0.1888,0.1887,0.1956,0.1959,0.1963,0.2087,0,0,0,0,0,0,0.1985,0.1984,0.1989,0.1969,0.1966,0.1979,0.1944,0.1939,0.1943,0.1941,0.1922,0.1919,0.1897,0.1917,0.1915,0.197,0.1887,0.1953,0.1958,0.1962,0.208,0.2094,0.2106,0,0,0,0,0,0.1985,0.1996,0.1989,0.1989,0.1972,0.1981,0.1978,0.196,0.1944,0.1957,0.1946,0.192,0.1943,0.1918,0.1915,0.1972,0.1951,0.1956,0.1961,0.2074,0.2091,0.2106,0,0,0,0,0,0,0.1999,0.1994,0.1985,0.1993,0.1998,0.1977,0.1984,0.1973,0.197,0.1967,0.194,0.1938,0.198,0.1956,0.1929,0.2006,0.1947,0.1952,0.2033,0.2049,0.2062,0.2068,0.1886,0,0,0,0,0,0.2006,0.2013,0.2009,0.2017,0.2021,0.2005,0.2005,0.1997,0.1992,0.199,0.1979,0.1976,0.1996,0.2006,0.2007,0.2044,0.2077,0.2081,0.2095,0.2106,0.211,0.2226,0.2251,0.1981,0.1981,0.1981,0,0,0.2011,0.2012,0.2014,0.2022,0.2017,0.2033,0.2004,0.2015,0.2035,0.199,0.2014,0.2018,0.2015,0.2061,0.2079,0.2051,0.2206,0.2112,0.2122,0.212,0.2234,0.2261,0.2284,0.1984,0.1984,0.1983,0,0,0.2032,0.203,0.2045,0.2056,0.2066,0.2061,0.2072,0.2067,0.2073,0.2097,0.2085,0.2128,0.2127,0.2158,0.217,0.2256,0.2269,0.2257,0.2334,0.2448,0.2472,0.2493,0.2598,0.2627,0.2268,0.2269,0.2269,0,0.2039,0.2056,0.2053,0.2075,0.209,0.208,0.2106,0.2115,0.2119,0.2149,0.212,0.2186,0.218,0.2274,0.2301,0.229,0.235,0.2275,0.2468,0.2489,0.2509,0.2612,0.2643,0.2275,0.2274,0.2274,0.2273,0,0.2072,0.209,0.2103,0.2126,0.2145,0.2167,0.2184,0.2212,0.2217,0.2233,0.2316,0.2323,0.2369,0.2386,0.2362,0.2506,0.2505,0.2472,0.2432,0.2544,0.2645,0.2675,0.2285,0.2282,0.228,0.2279,0,0,0.2075,0.2116,0.2122,0.2141,0.2175,0.219,0.2248,0.2303,0.2361,0.2382,0.2471,0.2515,0.253,0.2544,0.2551,0.2641,0.2833,0.2617,0.262,0.2729,0.3101,0.3173,0.3211,0.2845,0.285,0.2854,0.3127,0,0.2101,0.2146,0.2167,0.2215,0.2239,0.2269,0.2326,0.2381,0.2431,0.2515,0.2567,0.2637,0.2591,0.2632,0.2722,0.2797,0.2913,0.2762,0.2967,0.2973,0.3031,0.3249,0.3249,0.3498,0.3156,0.3161,0.3164,0,0.213,0.2156,0.2201,0.2265,0.2281,0.231,0.2413,0.2467,0.2591,0.2642,0.2738,0.2767,0.2901,0.2837,0.3061,0.2972,0.3051,0.3106,0.3118,0.3157,0.3102,0.3324,0.3565,0.3357,0.321,0.3207,0.3203,0,0.2126,0.2185,0.2218,0.2236,0.2305,0.2343,0.239,0.2504,0.2577,0.2732,0.28,0.2951,0.3028,0.316,0.3255,0.3183,0.3506,0.3421,0.357,0.3574,0.3599,0.3598,0.3668,0.361,0.361,0.3609,0.3608,0,0.2145,0.2174,0.2214,0.2229,0.2289,0.2343,0.2438,0.2519,0.266,0.2764,0.2857,0.2974,0.3113,0.3281,0.3358,0.3591,0.3606,0.3648,0.3681,0.3644,0.3644,0.3477,0.3344,0.3619,0.3617,0.3615,0.3613,0,0.2137,0.2162,0.22,0.2261,0.2281,0.2324,0.2434,0.251,0.2647,0.2793,0.2843,0.3043,0.3286,0.3439,0.3684,0.3738,0.3839,0.3997,0.3946,0.3969,0.3893,0.3767,0.3782,0.368,0.4234,0.4238,0.4241,0,0.2138,0.2153,0.2201,0.2212,0.2233,0.2301,0.235,0.249,0.258,0.2828,0.2899,0.3171,0.3373,0.3787,0.398,0.4236,0.3997,0.434,0.4201,0.3959,0.3842,0.3593,0.3483,0.429,0.4293,0.4296,0.4298,0,0.2136,0.2145,0.2167,0.2189,0.2218,0.2268,0.2352,0.2428,0.2607,0.2759,0.3004,0.3196,0.3618,0.3891,0.4222,0.4384,0.4124,0.4406,0.4182,0.3948,0.3657,0.3549,0.4008,0.4323,0.4321,0.4319,0.4318,0.4317,0.2122,0.2131,0.2144,0.2164,0.2188,0.2224,0.2266,0.2389,0.255,0.2776,0.3,0.3289,0.3675,0.4173,0.4311,0.4475,0.4306,0.4371,0.4263,0.4049,0.3874,0.4396,0.4714,0.4714,0.4714,0.4714,0.4714,0,0.2098,0.2102,0.2117,0.2126,0.2122,0.2156,0.2252,0.2304,0.2467,0.2733,0.2972,0.3418,0.3742,0.4059,0.4354,0.4272,0.4121,0.4166,0.3773,0.3691,0.4223,0.4144,0.4319,0.432,0.432,0.432,0.432,0.432,0.2079,0.2075,0.2079,0.2052,0.2051,0.2049,0.209,0.2198,0.2376,0.269,0.2958,0.321,0.3547,0.3842,0.3911,0.3943,0.3556,0.3521,0.334,0.3647,0.3653,0.3657,0.3549,0.3598,0.3597,0.2733,0.2727,0.2721]},{"header":{"parameterUnit":"m.s-1","parameterCategory":2,"la1":30.2991,"la2":30.254,"lo1":-89.0895,"lo2":-89.0444,"dy":0.0017,"dx":0.0017,"nx":28,"ny":28,"refTime":"2025-08-02T09:00:00:Z","depth":"0","parameterNumber":3,"parameterNumberName":"V-component_of_CURRENTS"},"data":[0,0,0,0,0,0,0,0,0,0,0,0,0,0,0,0,0,0,0,0,0,0,0,0,0,0,0,0,0,0,0,0,0,0,0,0,0,0,0,0,0,0,0,0,0,0,0,0,0,0,0,0,0,0,0,0,0,0,-0.0391,-0.0392,0,-0.0412,-0.0412,-0.0412,-0.0445,-0.0446,-0.0447,-0.0448,-0.0519,-0.052,-0.0521,0,0,0,0,0,0,0,0,0,0,0,0,0,-0.0345,-0.0346,-0.0391,-0.0392,-0.0392,-0.0412,-0.0412,-0.0412,-0.0445,-0.0446,-0.0447,-0.0449,-0.0519,-0.052,-0.0521,0,0,0,0,0,0,0,0,0,0,0,0,0,-0.0362,-0.0346,-0.0391,-0.0414,-0.0416,-0.0412,-0.0412,-0.0412,-0.0445,-0.0446,-0.0448,-0.0449,-0.0518,-0.052,-0.0521,-0.0503,0,0,-0.0526,-0.0527,0,0,0,0,0,0,0,0,-0.0361,-0.0363,-0.041,-0.0412,-0.0415,-0.0431,-0.0423,-0.0446,-0.0445,-0.043,-0.0448,-0.045,-0.0496,-0.0499,-0.0494,-0.0506,-0.0509,-0.0526,-0.0527,-0.0528,-0.0528,0,0,0,0,0,0,0,-0.036,-0.0363,-0.0396,-0.041,-0.0414,-0.0412,-0.0416,-0.0426,-0.0453,-0.0432,-0.0435,-0.0443,-0.0497,-0.0492,-0.0496,-0.051,-0.0526,-0.0528,-0.0529,-0.0529,-0.0522,-0.0521,0,0,0,0,0,0,-0.0365,-0.0362,-0.0395,-0.0397,-0.0395,-0.0412,-0.0416,-0.0421,-0.0452,-0.0458,-0.0442,-0.0444,-0.0489,-0.0494,-0.0499,-0.0469,-0.0528,-0.0529,-0.053,-0.0524,-0.0522,-0.0521,0,0,0,0,0,0,-0.0364,-0.0368,-0.0394,-0.0383,-0.0387,-0.0412,-0.0417,-0.0421,-0.0423,-0.046,-0.0467,-0.044,-0.049,-0.0497,-0.0499,-0.0473,-0.053,-0.0531,-0.0525,-0.0523,-0.0522,-0.0416,0,0,0,0,0,0,-0.0362,-0.0367,-0.0364,-0.0383,-0.0388,-0.0383,-0.0416,-0.0421,-0.0427,-0.0431,-0.0461,-0.0468,-0.0492,-0.0496,-0.05,-0.0476,-0.0533,-0.0526,-0.0524,-0.0522,-0.0421,-0.0411,-0.0402,0,0,0,0,0,-0.0361,-0.0348,-0.0363,-0.0367,-0.0385,-0.0382,-0.0383,-0.0404,-0.0425,-0.0412,-0.0433,-0.0468,-0.0487,-0.0496,-0.0501,-0.0477,-0.0527,-0.0525,-0.0522,-0.0425,-0.0413,-0.0402,0,0,0,0,0,0,-0.0322,-0.0351,-0.0368,-0.0365,-0.0372,-0.0389,-0.038,-0.0399,-0.0403,-0.0407,-0.0449,-0.0456,-0.0451,-0.0478,-0.0487,-0.047,-0.0515,-0.0513,-0.0439,-0.0428,-0.0419,-0.0395,-0.0534,0,0,0,0,0,-0.0314,-0.0313,-0.0339,-0.0332,-0.0337,-0.0358,-0.0359,-0.0371,-0.0383,-0.0387,-0.041,-0.0432,-0.0442,-0.0446,-0.0461,-0.0446,-0.048,-0.0436,-0.0427,-0.0419,-0.0403,-0.043,-0.0421,-0.0513,-0.0513,-0.0513,0,0,-0.0295,-0.0312,-0.0311,-0.0324,-0.0332,-0.0311,-0.0361,-0.0353,-0.0329,-0.0393,-0.0369,-0.0402,-0.0432,-0.0415,-0.0415,-0.0434,-0.0411,-0.0416,-0.0408,-0.0397,-0.0426,-0.0418,-0.041,-0.0511,-0.0511,-0.0512,0,0,-0.0249,-0.0274,-0.0255,-0.0255,-0.0265,-0.0273,-0.0271,-0.0285,-0.0287,-0.0273,-0.0311,-0.0321,-0.0342,-0.0346,-0.0355,-0.0303,-0.0365,-0.032,-0.0246,-0.0272,-0.0264,-0.0258,-0.029,-0.0287,-0.031,-0.031,-0.031,0,-0.0227,-0.0209,-0.0245,-0.0221,-0.0209,-0.0252,-0.0214,-0.0213,-0.0223,-0.0214,-0.0254,-0.0271,-0.0302,-0.0272,-0.0256,-0.0279,-0.0313,-0.0284,-0.0259,-0.0253,-0.0249,-0.0283,-0.0282,-0.0305,-0.0305,-0.0306,-0.0306,0,-0.0165,-0.0147,-0.0132,-0.0117,-0.0105,-0.008,-0.0089,-0.0075,-0.0095,-0.0104,-0.0095,-0.0139,-0.0151,-0.0164,-0.0195,-0.017,-0.0211,-0.0247,-0.0284,-0.0233,-0.0273,-0.0273,-0.0297,-0.0299,-0.03,-0.0302,0,0,-0.0127,-0.0095,-0.0091,-0.0058,-0.0048,-0.0027,0.0018,0.0045,0.0081,0.0046,0.008,0.0052,0.0005,-0.0008,-0.0054,-0.0073,-0.0076,-0.0141,-0.0145,-0.0166,-0.0142,-0.0149,-0.0151,-0.0116,-0.0115,-0.0115,-0.0183,0,-0.0068,0.0,0.0002,0.0083,0.012,0.0113,0.0165,0.0185,0.018,0.0202,0.0147,0.015,0.0071,0.0061,0.0031,-0.0046,-0.0073,-0.0055,-0.0193,-0.0197,-0.0204,-0.015,-0.009,-0.0143,-0.0183,-0.0184,-0.0184,0,-0.0008,0.0031,0.0114,0.0191,0.0207,0.0252,0.0323,0.0362,0.0378,0.0373,0.0353,0.0294,0.0267,0.018,0.0077,0.0087,-0.0016,-0.0087,-0.0092,-0.0132,-0.0204,-0.0202,-0.0144,-0.0301,-0.0185,-0.0185,-0.0185,0,0.0036,0.0113,0.0184,0.0207,0.0282,0.0328,0.0368,0.0411,0.0464,0.0471,0.0489,0.0431,0.0403,0.0279,0.0122,0.0094,-0.0002,-0.0063,-0.0165,-0.0168,-0.0159,-0.0161,-0.026,-0.0139,-0.0139,-0.0139,-0.0139,0,0.0098,0.0156,0.021,0.025,0.0355,0.0383,0.0489,0.0523,0.0578,0.0643,0.0568,0.0596,0.0423,0.0337,0.0175,0.0019,0.0032,-0.0134,-0.0175,-0.0121,-0.0119,-0.0291,-0.0417,-0.0142,-0.0141,-0.0141,-0.014,0,0.014,0.0171,0.026,0.0343,0.0379,0.045,0.0566,0.0645,0.0677,0.0755,0.0757,0.0723,0.0624,0.0447,0.0261,0.0102,-0.0142,-0.0125,-0.005,-0.008,-0.0324,-0.0446,-0.0582,-0.0654,-0.0243,-0.0243,-0.0244,0,0.0169,0.0215,0.032,0.0383,0.0425,0.0529,0.0616,0.0689,0.0771,0.0834,0.088,0.0819,0.0807,0.0552,0.0281,0.0026,-0.0145,-0.0115,-0.0154,-0.0308,-0.0476,-0.0533,-0.0589,-0.0109,-0.0108,-0.0108,-0.0107,0,0.0229,0.0257,0.033,0.045,0.0547,0.0669,0.0785,0.0868,0.0948,0.1021,0.1102,0.1101,0.0873,0.0693,0.0348,0.0139,-0.0207,-0.0111,-0.0284,-0.0379,-0.0435,-0.0532,-0.0111,-0.0101,-0.0102,-0.0102,-0.0103,-0.0103,0.0272,0.0331,0.0419,0.0535,0.0649,0.0796,0.0902,0.1028,0.1172,0.1305,0.1287,0.1358,0.1079,0.0645,0.0333,-0.0154,-0.0209,-0.03,-0.0436,-0.0479,-0.0539,-0.0104,-0.0135,-0.0135,-0.0136,-0.0137,-0.0137,0,0.0329,0.0397,0.0505,0.0648,0.0774,0.0827,0.1013,0.1122,0.1292,0.1458,0.1551,0.1536,0.1157,0.0719,0.0066,-0.0365,-0.0517,-0.0607,-0.0678,-0.0723,-0.0335,-0.0317,-0.037,-0.037,-0.037,-0.037,-0.037,-0.037,0.0369,0.0468,0.052,0.0723,0.083,0.1003,0.1112,0.1273,0.1428,0.1669,0.1805,0.1883,0.1556,0.0398,-0.0434,-0.0656,-0.0966,-0.1038,-0.1215,-0.0962,-0.0943,-0.0925,-0.0934,-0.1117,-0.1118,-0.1484,-0.1489,-0.1492]}],[{"header":{"parameterUnit":"m.s-1","parameterCategory":2,"la1":30.2991,"la2":30.254,"lo1":-89.0895,"lo2":-89.0444,"dy":0.0017,"dx":0.0017,"nx":28,"ny":28,"refTime":"2025-08-02T09:00:00:Z","depth":"2","parameterNumber":2,"parameterNumberName":"U-component_of_CURRENTS"},"data":[0,0,0,0,0,0,0,0,0,0,0,0,0,0,0,0,0,0,0,0,0,0,0,0,0,0,0,0,0,0,0,0,0,0,0,0,0,0,0,0,0,0,0,0,0,0,0,0,0,0,0,0,0,0,0,0,0,0,0.238,0.238,0,0.2418,0.2419,0.2419,0.2398,0.2398,0.2397,0.2396,0.2387,0.2387,0.2388,0,0,0,0,0,0,0,0,0,0,0,0,0,0.2303,0.2304,0.238,0.2381,0.2381,0.2418,0.2419,0.2419,0.2399,0.2398,0.2397,0.2396,0.2387,0.2387,0.2388,0,0,0,0,0,0,0,0,0,0,0,0,0,0.2336,0.2304,0.238,0.2377,0.2378,0.2418,0.2419,0.2419,0.2399,0.2398,0.2396,0.2395,0.2386,0.2387,0.2388,0.2416,0,0,0.239,0.239,0,0,0,0,0,0,0,0,0.2334,0.2338,0.2377,0.2378,0.2378,0.2405,0.2388,0.2417,0.2399,0.2388,0.2396,0.2395,0.2391,0.2391,0.2398,0.2416,0.2416,0.239,0.2391,0.2391,0.2391,0,0,0,0,0,0,0,0.2331,0.2337,0.2392,0.2378,0.2379,0.238,0.2383,0.2394,0.2393,0.2389,0.2388,0.2397,0.239,0.2397,0.2398,0.2415,0.239,0.2391,0.2391,0.2392,0.2464,0.2465,0,0,0,0,0,0,0.2333,0.2335,0.2391,0.2394,0.2356,0.2382,0.2385,0.2395,0.2394,0.2394,0.2398,0.2396,0.2397,0.2397,0.2397,0.2423,0.2391,0.2392,0.2392,0.2462,0.2464,0.2466,0,0,0,0,0,0,0.2331,0.2338,0.239,0.2367,0.2374,0.2385,0.2396,0.2397,0.239,0.2402,0.24,0.239,0.2396,0.2396,0.2405,0.2422,0.2392,0.2393,0.246,0.2463,0.2465,0.2479,0,0,0,0,0,0,0.2329,0.2337,0.2337,0.2367,0.2375,0.2406,0.2398,0.2398,0.24,0.2397,0.2395,0.2393,0.2395,0.2404,0.2406,0.2423,0.2393,0.2459,0.2461,0.2464,0.2477,0.2482,0.2486,0,0,0,0,0,0.2326,0.2329,0.2337,0.2344,0.2378,0.2406,0.241,0.2412,0.2401,0.24,0.2403,0.2392,0.2423,0.2405,0.2407,0.2425,0.2457,0.2461,0.2464,0.2475,0.2481,0.2486,0,0,0,0,0,0,0.2288,0.2329,0.2337,0.235,0.2375,0.2403,0.2403,0.2408,0.2411,0.2401,0.2405,0.2405,0.2425,0.2426,0.2406,0.2458,0.2441,0.2445,0.2449,0.2455,0.2459,0.2475,0.2394,0,0,0,0,0,0.2285,0.2299,0.2338,0.2346,0.2358,0.238,0.2388,0.2393,0.2406,0.2405,0.2402,0.2413,0.2445,0.2446,0.2465,0.2484,0.2541,0.2501,0.2506,0.2509,0.2526,0.2647,0.2664,0.2476,0.2476,0.2476,0,0,0.2271,0.2297,0.2302,0.234,0.2356,0.238,0.238,0.2392,0.2409,0.2405,0.2408,0.2425,0.2455,0.2484,0.2492,0.248,0.2592,0.2513,0.2516,0.2532,0.2652,0.2671,0.2687,0.2479,0.2478,0.2478,0,0,0.2261,0.2276,0.2289,0.2313,0.2345,0.2365,0.2367,0.239,0.2394,0.2409,0.2426,0.2458,0.2466,0.2512,0.2536,0.2579,0.2615,0.2574,0.2602,0.2719,0.2736,0.2751,0.2842,0.2866,0.2571,0.2571,0.2571,0,0.2242,0.2273,0.2295,0.2319,0.2344,0.2359,0.2385,0.2398,0.2416,0.2445,0.2406,0.2491,0.2494,0.259,0.2592,0.2591,0.2653,0.2574,0.2726,0.2742,0.2758,0.2848,0.2874,0.2572,0.2572,0.2572,0.2572,0,0.2255,0.2276,0.2285,0.2328,0.2353,0.2374,0.241,0.2425,0.2426,0.2456,0.2522,0.254,0.2603,0.2603,0.2599,0.2718,0.2725,0.2721,0.2712,0.2778,0.2868,0.2895,0.2574,0.2573,0.2573,0.2573,0,0,0.2231,0.2284,0.2288,0.2316,0.2363,0.2389,0.2428,0.2494,0.2541,0.2547,0.2627,0.2664,0.2683,0.2714,0.273,0.2804,0.2944,0.2796,0.2801,0.2885,0.3196,0.3057,0.3073,0.2968,0.2973,0.2977,0.3212,0,0.2239,0.2283,0.2314,0.2359,0.239,0.2433,0.2477,0.2535,0.2575,0.2646,0.2702,0.2769,0.2727,0.276,0.2834,0.2924,0.3016,0.288,0.3121,0.3128,0.2996,0.31,0.2695,0.2858,0.3239,0.3243,0.3246,0,0.2256,0.2286,0.2328,0.2401,0.242,0.2444,0.2545,0.2589,0.2702,0.2739,0.2827,0.2869,0.2988,0.293,0.3142,0.3057,0.3132,0.3188,0.3199,0.3086,0.3039,0.2856,0.2893,0.3291,0.3288,0.3284,0.3281,0,0.225,0.2306,0.234,0.2361,0.2436,0.2468,0.2512,0.2615,0.2681,0.2811,0.2878,0.3014,0.3093,0.3216,0.3303,0.3247,0.3532,0.3481,0.3441,0.3432,0.3142,0.3099,0.366,0.366,0.3659,0.3659,0.3658,0,0.2266,0.2295,0.2332,0.2352,0.2408,0.2461,0.2545,0.2612,0.2733,0.2841,0.2923,0.3039,0.3168,0.3322,0.3389,0.3498,0.3621,0.3478,0.3497,0.3132,0.3087,0.3497,0.3475,0.3668,0.3666,0.3664,0.3662,0,0.2263,0.2286,0.2328,0.2385,0.2405,0.2442,0.2547,0.2614,0.2727,0.2876,0.2926,0.3106,0.3298,0.3426,0.3645,0.3599,0.3724,0.3737,0.3281,0.3238,0.3524,0.3501,0.3721,0.3718,0.3716,0.3714,0.3712,0,0.227,0.2285,0.2333,0.2349,0.2369,0.2431,0.2479,0.2595,0.2677,0.2919,0.2994,0.3215,0.3332,0.357,0.3494,0.3583,0.3779,0.3329,0.3132,0.3542,0.3539,0.3518,0.3498,0.2767,0.2758,0.2751,0.2745,0,0.2281,0.2285,0.2314,0.2338,0.2371,0.2425,0.2502,0.2571,0.2735,0.286,0.3055,0.3162,0.3265,0.3136,0.3196,0.3194,0.326,0.3176,0.3785,0.279,0.2655,0.2647,0.2657,0.2678,0.2684,0.2689,0.2693,0.2696,0.2281,0.2291,0.231,0.2328,0.2358,0.2395,0.243,0.2532,0.2654,0.2732,0.2901,0.2885,0.2865,0.2682,0.2681,0.2642,0.2841,0.2756,0.2775,0.2803,0.2625,0.2491,0.2451,0.2456,0.246,0.2464,0.2468,0,0.2275,0.2278,0.2298,0.2312,0.2311,0.2343,0.2425,0.243,0.2525,0.2502,0.2532,0.2213,0.2102,0.2204,0.1944,0.1939,0.1864,0.1984,0.1861,0.1924,0.1981,0.176,0.1358,0.1356,0.1354,0.1353,0,0,0.2276,0.2277,0.2275,0.2251,0.2249,0.2234,0.2258,0.2269,0.224,0.205,0.1896,0.1829,0.1986,0.1589,0.1552,0.1451,0.1686,0.1386,0.2244,0.2151,0.2206,0.2363,0.2084,0,0,0,0,0]},{"header":{"parameterUnit":"m.s-1","parameterCategory":2,"la1":30.2991,"la2":30.254,"lo1":-89.0895,"lo2":-89.0444,"dy":0.0017,"dx":0.0017,"nx":28,"ny":28,"refTime":"2025-08-02T09:00:00:Z","depth":"2","parameterNumber":3,"parameterNumberName":"V-component_of_CURRENTS"},"data":[0,0,0,0,0,0,0,0,0,0,0,0,0,0,0,0,0,0,0,0,0,0,0,0,0,0,0,0,0,0,0,0,0,0,0,0,0,0,0,0,0,0,0,0,0,0,0,0,0,0,0,0,0,0,0,0,0,0,0.0075,0.0074,0,0.0014,0.0013,0.0013,-0.0035,-0.0036,-0.0036,-0.0037,-0.0092,-0.0093,-0.0094,0,0,0,0,0,0,0,0,0,0,0,0,0,0.0138,0.0137,0.0075,0.0074,0.0074,0.0014,0.0013,0.0013,-0.0035,-0.0036,-0.0036,-0.0037,-0.0092,-0.0093,-0.0094,0,0,0,0,0,0,0,0,0,0,0,0,0,0.0097,0.0137,0.0075,0.0043,0.0039,0.0014,0.0013,0.0012,-0.0035,-0.0036,-0.0036,-0.0037,-0.0091,-0.0093,-0.0095,-0.009,0,0,-0.0099,-0.01,0,0,0,0,0,0,0,0,0.01,0.0095,0.0048,0.0045,0.0041,-0.0004,0.0015,-0.0022,-0.0035,-0.0007,-0.0037,-0.0037,-0.0062,-0.0066,-0.0076,-0.0093,-0.0095,-0.0099,-0.01,-0.0101,-0.0102,0,0,0,0,0,0,0,0.0103,0.0097,0.0051,0.0047,0.0043,0.0027,0.002,0.0008,-0.0029,-0.0009,-0.0013,-0.002,-0.0064,-0.0074,-0.0077,-0.0096,-0.0099,-0.0101,-0.0102,-0.0102,-0.0129,-0.0129,0,0,0,0,0,0,0.0111,0.01,0.0053,0.0049,0.0069,0.0026,0.0019,0.0011,-0.0029,-0.0036,-0.0019,-0.0022,-0.0071,-0.0075,-0.0079,-0.0077,-0.0101,-0.0103,-0.0103,-0.0129,-0.0129,-0.0129,0,0,0,0,0,0,0.0113,0.0108,0.0055,0.0073,0.0065,0.0026,0.0018,0.0011,-0.0,-0.0037,-0.0044,-0.0022,-0.0072,-0.0077,-0.009,-0.008,-0.0103,-0.0105,-0.0129,-0.0129,-0.0129,-0.0072,0,0,0,0,0,0,0.0115,0.0109,0.011,0.0074,0.0065,0.0048,0.0018,0.001,-0.0003,-0.0007,-0.0042,-0.0048,-0.0073,-0.0087,-0.0091,-0.0082,-0.0106,-0.013,-0.0129,-0.0129,-0.0075,-0.007,-0.0067,0,0,0,0,0,0.0118,0.0121,0.011,0.0104,0.0066,0.0049,0.0043,0.0012,-0.0002,-0.0001,-0.0028,-0.0047,-0.0088,-0.0088,-0.0093,-0.0084,-0.013,-0.0129,-0.0129,-0.0076,-0.0071,-0.0067,0,0,0,0,0,0,0.0149,0.0116,0.0103,0.0096,0.0078,0.0041,0.0038,0.0019,-0.0001,-0.0007,-0.0041,-0.0049,-0.0057,-0.0078,-0.0077,-0.0092,-0.0113,-0.0113,-0.0071,-0.0067,-0.0063,-0.0048,-0.0107,0,0,0,0,0,0.0157,0.0151,0.012,0.0116,0.0108,0.0076,0.0065,0.0045,0.0021,0.0011,-0.0014,-0.0041,-0.0058,-0.0067,-0.0087,-0.009,-0.0111,-0.009,-0.0086,-0.0082,-0.0075,-0.0103,-0.01,-0.0127,-0.0127,-0.0127,0,0,0.0168,0.015,0.0146,0.0123,0.0104,0.0101,0.0068,0.0055,0.0054,0.0009,0.0001,-0.0025,-0.0056,-0.0064,-0.0069,-0.008,-0.0084,-0.0082,-0.0078,-0.0073,-0.0102,-0.0099,-0.0097,-0.0127,-0.0127,-0.0127,0,0,0.019,0.0171,0.0175,0.0163,0.0141,0.0122,0.0123,0.009,0.0077,0.0067,0.0034,0.0015,-0.0013,-0.0033,-0.0046,-0.003,-0.0061,-0.0038,-0.0006,-0.0032,-0.003,-0.0029,-0.0043,-0.0043,-0.0037,-0.0037,-0.0037,0,0.0204,0.0204,0.0176,0.0178,0.0175,0.0136,0.0146,0.0128,0.0096,0.0095,0.0071,0.0031,0.0003,-0.0003,-0.0003,-0.0019,-0.0038,-0.002,-0.0026,-0.0025,-0.0024,-0.004,-0.0041,-0.0034,-0.0034,-0.0035,-0.0035,0,0.0227,0.023,0.0233,0.0223,0.0218,0.0219,0.0193,0.0189,0.0167,0.0148,0.0135,0.0091,0.0068,0.0054,0.0028,0.0023,0.0008,-0.0016,-0.0035,-0.0018,-0.0036,-0.0038,-0.003,-0.0031,-0.0032,-0.0033,0,0,0.0251,0.025,0.025,0.0266,0.0244,0.0248,0.0247,0.0244,0.0257,0.0213,0.0224,0.0176,0.0148,0.013,0.0094,0.0066,0.0052,0.003,0.0027,0.0022,0.0001,-0.0005,-0.0008,0.0024,0.0024,0.0024,-0.001,0,0.0279,0.0305,0.0291,0.0323,0.0339,0.0314,0.0324,0.0315,0.0299,0.03,0.0248,0.0241,0.0178,0.0173,0.0132,0.008,0.0048,0.0064,-0.0021,-0.0023,-0.0025,-0.001,-0.0065,-0.01,-0.0012,-0.0013,-0.0013,0,0.0307,0.0324,0.0357,0.0391,0.0395,0.0404,0.0426,0.0433,0.0418,0.0407,0.0376,0.0335,0.0295,0.0236,0.0143,0.0156,0.0082,0.0031,0.0028,0.0002,-0.0032,-0.0106,-0.0107,-0.0016,-0.0016,-0.0016,-0.0016,0,0.035,0.0377,0.041,0.0416,0.0436,0.0452,0.0466,0.0465,0.0489,0.0478,0.0491,0.0423,0.0404,0.03,0.0188,0.0165,0.0089,0.0042,-0.0035,-0.0036,-0.0109,-0.0116,-0.0032,-0.0032,-0.0032,-0.0032,-0.0032,0,0.0391,0.0423,0.0434,0.0454,0.0509,0.0505,0.056,0.0564,0.0579,0.0623,0.0551,0.0571,0.0417,0.0352,0.0228,0.0106,0.0116,-0.0021,-0.0045,-0.009,-0.0094,-0.0047,-0.0048,-0.0033,-0.0033,-0.0033,-0.0032,0,0.0437,0.0439,0.0487,0.0514,0.0529,0.0571,0.0626,0.0671,0.0675,0.0729,0.0732,0.0685,0.0614,0.0463,0.0314,0.0174,0.0052,0.0,-0.0032,-0.0059,-0.007,-0.0068,-0.0096,-0.0096,-0.0096,-0.0097,-0.0097,0,0.0465,0.0489,0.0532,0.0566,0.058,0.0639,0.0686,0.0714,0.0762,0.0811,0.0844,0.08,0.0795,0.0583,0.0308,0.0093,0.009,-0.009,-0.0155,-0.0056,-0.0076,-0.0074,-0.0071,-0.0232,-0.0233,-0.0234,-0.0235,0,0.0518,0.0523,0.0558,0.0622,0.0674,0.0749,0.0813,0.0867,0.0912,0.0982,0.1054,0.1065,0.0833,0.0583,0.0277,0.0122,-0.0062,-0.0119,-0.0012,-0.0196,-0.0185,-0.0204,-0.0198,-0.0245,-0.0244,-0.0243,-0.0243,-0.0242,0.055,0.0583,0.0617,0.0685,0.0751,0.0841,0.0915,0.1008,0.1123,0.1204,0.118,0.1158,0.0838,0.0413,0.0164,-0.0124,-0.0111,-0.0238,-0.0235,-0.0231,-0.023,-0.0218,-0.0284,-0.0284,-0.0283,-0.0282,-0.0282,0,0.058,0.0617,0.0681,0.0755,0.0834,0.0865,0.099,0.1087,0.1251,0.1272,0.1317,0.0975,0.0705,0.0403,-0.0073,-0.0321,-0.035,-0.0358,-0.0374,-0.0364,-0.0355,-0.0361,-0.045,-0.0451,-0.0451,-0.0451,0,0,0.0595,0.0646,0.068,0.0802,0.0869,0.0988,0.1069,0.1242,0.1298,0.1333,0.125,0.1103,0.0724,0.0345,0.0004,-0.022,-0.0215,-0.0249,-0.0103,-0.0074,-0.0062,-0.0292,-0.0289,0,0,0,0,0]}],[{"header":{"parameterUnit":"m.s-1","parameterCategory":2,"la1":30.2991,"la2":30.254,"lo1":-89.0895,"lo2":-89.0444,"dy":0.0017,"dx":0.0017,"nx":28,"ny":28,"refTime":"2025-08-02T09:00:00:Z","depth":"4","parameterNumber":2,"parameterNumberName":"U-component_of_CURRENTS"},"data":[0,0,0,0,0,0,0,0,0,0,0,0,0,0,0,0,0,0,0,0,0,0,0,0,0,0,0,0,0,0,0,0,0,0,0,0,0,0,0,0,0,0,0,0,0,0,0,0,0,0,0,0,0,0,0,0,0,0,0.0663,0.0663,0,0.062,0.0618,0.0617,0.061,0.0611,0.0613,0.0614,0.0799,0.0803,0.0806,0,0,0,0,0,0,0,0,0,0,0,0,0,0.0596,0.0597,0.0663,0.0663,0.0664,0.062,0.0618,0.0616,0.0609,0.0611,0.0613,0.0615,0.0798,0.0802,0.0806,0,0,0,0,0,0,0,0,0,0,0,0,0,0.0584,0.0597,0.0662,0.0665,0.0666,0.062,0.0618,0.0616,0.0609,0.0611,0.0614,0.0616,0.0797,0.0802,0.0807,0.0792,0,0,0.0823,0.0825,0,0,0,0,0,0,0,0,0.0585,0.0585,0.0664,0.0665,0.0666,0.0634,0.0663,0.0691,0.0608,0.0616,0.0614,0.0617,0.0772,0.0779,0.0744,0.08,0.0808,0.0823,0.0826,0.0829,0.083,0,0,0,0,0,0,0,0.0586,0.0586,0.0632,0.0665,0.0666,0.062,0.0621,0.0665,0.0676,0.0616,0.0619,0.0634,0.0773,0.0739,0.0749,0.0811,0.0823,0.0828,0.0831,0.0833,0.0982,0.0983,0,0,0,0,0,0,0.0623,0.0587,0.0634,0.0632,0.0645,0.0621,0.0621,0.0631,0.067,0.068,0.0632,0.0634,0.0729,0.0743,0.0756,0.0893,0.0829,0.0834,0.0837,0.0982,0.0983,0.0983,0,0,0,0,0,0,0.0621,0.0627,0.0636,0.0619,0.0619,0.0622,0.0631,0.0629,0.0646,0.0682,0.0695,0.066,0.0731,0.0749,0.0854,0.0895,0.0836,0.0841,0.0981,0.0982,0.0983,0.107,0,0,0,0,0,0,0.0619,0.0626,0.0628,0.0622,0.0622,0.0647,0.0631,0.0627,0.0655,0.0658,0.071,0.0725,0.0734,0.0846,0.0859,0.0901,0.0845,0.0979,0.0981,0.0983,0.1066,0.1074,0.1081,0,0,0,0,0,0.0616,0.0605,0.0628,0.0634,0.0631,0.065,0.0644,0.0644,0.0655,0.0665,0.0718,0.0726,0.0864,0.0853,0.0867,0.0912,0.0979,0.0981,0.0983,0.1063,0.1073,0.1081,0,0,0,0,0,0,0.0578,0.0605,0.063,0.063,0.0666,0.0655,0.0656,0.067,0.0705,0.0727,0.0758,0.0778,0.0872,0.0879,0.0865,0.0952,0.0914,0.0919,0.097,0.0979,0.0987,0.0984,0.0849,0,0,0,0,0,0.0576,0.0592,0.0619,0.064,0.0651,0.0665,0.067,0.0688,0.0725,0.074,0.0799,0.0843,0.0875,0.0925,0.0952,0.1025,0.1,0.1052,0.106,0.1066,0.1071,0.1044,0.105,0.099,0.099,0.099,0,0,0.0575,0.0597,0.0607,0.0636,0.0654,0.0676,0.0672,0.0707,0.0734,0.0762,0.0841,0.0883,0.0897,0.0965,0.1007,0.0994,0.1076,0.1069,0.1075,0.1075,0.1047,0.1053,0.1058,0.0991,0.0991,0.0991,0,0,0.059,0.0601,0.0618,0.0645,0.0698,0.0704,0.0735,0.0774,0.0791,0.0872,0.0888,0.0963,0.1036,0.105,0.1058,0.1125,0.1109,0.1141,0.1198,0.1173,0.1177,0.1181,0.1181,0.1184,0.1154,0.1154,0.1154,0,0.0594,0.0617,0.0631,0.066,0.0681,0.0731,0.0757,0.0773,0.0857,0.0904,0.0919,0.1028,0.1056,0.1112,0.1137,0.1143,0.1138,0.1169,0.1183,0.1186,0.1188,0.1187,0.1189,0.1159,0.1158,0.1158,0.1157,0,0.0613,0.0645,0.0662,0.0716,0.0733,0.0774,0.0808,0.0871,0.0922,0.0968,0.1068,0.1098,0.1176,0.1182,0.1188,0.1232,0.1227,0.1189,0.1163,0.12,0.1196,0.1197,0.1165,0.1164,0.1162,0.1161,0,0,0.0602,0.0661,0.0675,0.0711,0.0764,0.079,0.0845,0.0915,0.0972,0.1068,0.113,0.1203,0.127,0.1281,0.1299,0.1283,0.1307,0.1266,0.1263,0.1271,0.1283,0.1206,0.1199,0.1281,0.1281,0.1281,0.1282,0,0.0627,0.0676,0.0695,0.0766,0.0787,0.0843,0.0894,0.0974,0.1029,0.1114,0.1169,0.1248,0.1286,0.1337,0.134,0.1311,0.131,0.1312,0.124,0.1238,0.1169,0.1196,0.1281,0.1282,0.1282,0.1282,0.1282,0,0.063,0.0666,0.0714,0.0797,0.0813,0.0883,0.0968,0.1033,0.1147,0.1182,0.1287,0.133,0.1404,0.1372,0.1388,0.1399,0.1365,0.1316,0.1314,0.1209,0.1161,0.1229,0.1283,0.1283,0.1283,0.1283,0.1283,0,0.0597,0.0679,0.0718,0.0744,0.0841,0.0912,0.1006,0.1108,0.1147,0.1266,0.1299,0.139,0.144,0.1416,0.1398,0.1402,0.1341,0.1322,0.1218,0.1214,0.1245,0.124,0.1287,0.1287,0.1287,0.1287,0.1287,0,0.0591,0.064,0.0737,0.0771,0.0848,0.0949,0.1043,0.113,0.1232,0.1287,0.139,0.1394,0.1448,0.1436,0.1399,0.133,0.1364,0.1233,0.1203,0.1285,0.1285,0.1247,0.1242,0.1287,0.1287,0.1287,0.1287,0,0.0553,0.0617,0.0678,0.0801,0.0836,0.093,0.1062,0.1132,0.1251,0.1303,0.1351,0.1426,0.1435,0.1437,0.1373,0.1332,0.1247,0.1197,0.131,0.1285,0.1144,0.1144,0.1108,0.1105,0.1103,0.1101,0.1099,0,0.0531,0.0557,0.0662,0.0724,0.0805,0.0927,0.1,0.1126,0.1174,0.129,0.1304,0.1365,0.1393,0.1271,0.1271,0.1208,0.1172,0.115,0.1138,0.1149,0.1124,0.1127,0.113,0.1095,0.1095,0.1094,0.1093,0,0.0486,0.0541,0.0579,0.0675,0.0778,0.0834,0.0969,0.0963,0.111,0.1197,0.1221,0.123,0.1225,0.1205,0.1171,0.1108,0.118,0.1124,0.1129,0.1118,0.1133,0.1111,0.1117,0.1085,0.1086,0.1087,0.1088,0,0.0443,0.0463,0.0526,0.0609,0.0717,0.0772,0.0816,0.089,0.0931,0.108,0.1065,0.1128,0.1201,0.1148,0.1094,0.1061,0.1044,0.1006,0.1017,0.1026,0.0995,0.1003,0.089,0,0,0,0,0,0.04,0.0426,0.0474,0.0555,0.0658,0.0711,0.0804,0.0849,0.0942,0.0938,0.1009,0.1002,0.0993,0.1008,0.0952,0.1028,0.1025,0.0957,0.0982,0.1039,0.1049,0.1018,0,0,0,0,0,0,0.0387,0.0425,0.0429,0.0486,0.0541,0.0615,0.0668,0.0722,0.0719,0.0838,0.0828,0.0942,0.0928,0.1012,0.0934,0.0939,0.0932,0.1002,0.0999,0.1034,0.1042,0.105,0.1022,0,0,0,0,0]},{"header":{"parameterUnit":"m.s-1","parameterCategory":2,"la1":30.2991,"la2":30.254,"lo1":-89.0895,"lo2":-89.0444,"dy":0.0017,"dx":0.0017,"nx":28,"ny":28,"refTime":"2025-08-02T09:00:00:Z","depth":"4","parameterNumber":3,"parameterNumberName":"V-component_of_CURRENTS"},"data":[0,0,0,0,0,0,0,0,0,0,0,0,0,0,0,0,0,0,0,0,0,0,0,0,0,0,0,0,0,0,0,0,0,0,0,0,0,0,0,0,0,0,0,0,0,0,0,0,0,0,0,0,0,0,0,0,0,0,0.0094,0.0093,0,0.0063,0.0063,0.0062,0.0069,0.0069,0.007,0.0071,-0.0011,-0.0014,-0.0017,0,0,0,0,0,0,0,0,0,0,0,0,0,0.0116,0.0116,0.0094,0.0093,0.0093,0.0063,0.0062,0.0062,0.0068,0.0069,0.007,0.0071,-0.001,-0.0013,-0.0017,0,0,0,0,0,0,0,0,0,0,0,0,0,0.0097,0.0116,0.0094,0.0093,0.0093,0.0063,0.0062,0.0062,0.0068,0.0069,0.007,0.0071,-0.0009,-0.0013,-0.0017,-0.0063,0,0,-0.003,-0.0032,0,0,0,0,0,0,0,0,0.0098,0.0096,0.0094,0.0093,0.0093,0.0072,0.004,0.0018,0.0068,0.0077,0.0071,0.0072,0.0012,0.0006,-0.0003,-0.0067,-0.007,-0.003,-0.0033,-0.0035,-0.0036,0,0,0,0,0,0,0,0.0099,0.0097,0.008,0.0093,0.0093,0.0081,0.0079,0.0036,0.0037,0.0076,0.0077,0.0075,0.0011,0.0001,-0.0005,-0.0072,-0.003,-0.0034,-0.0037,-0.0038,-0.0148,-0.0148,0,0,0,0,0,0,0.0106,0.0098,0.0081,0.008,0.0099,0.008,0.0078,0.0077,0.0039,0.0035,0.0074,0.0075,0.0008,0.0,-0.0008,-0.0054,-0.0035,-0.0039,-0.0041,-0.0147,-0.0148,-0.0148,0,0,0,0,0,0,0.0107,0.0105,0.0083,0.0089,0.0086,0.0079,0.0077,0.0075,0.0072,0.0038,0.0033,0.0072,0.0008,-0.0002,-0.0043,-0.0058,-0.0041,-0.0044,-0.0147,-0.0147,-0.0148,-0.0155,0,0,0,0,0,0,0.0108,0.0105,0.0111,0.009,0.0086,0.0073,0.0076,0.0074,0.0069,0.0071,0.0034,0.0028,0.0008,-0.0037,-0.0047,-0.0063,-0.0048,-0.0146,-0.0147,-0.0148,-0.0154,-0.0155,-0.0157,0,0,0,0,0,0.0108,0.0118,0.0111,0.0109,0.0092,0.0073,0.007,0.0067,0.0068,0.0067,0.0039,0.0029,-0.0048,-0.0041,-0.0053,-0.0071,-0.0146,-0.0147,-0.0148,-0.0153,-0.0155,-0.0156,0,0,0,0,0,0,0.0133,0.0119,0.0111,0.0117,0.0097,0.0075,0.0077,0.0067,0.0044,0.0041,0.0013,0.0004,-0.0037,-0.0052,-0.0043,-0.0101,-0.0095,-0.0098,-0.0095,-0.0097,-0.0098,-0.008,-0.0051,0,0,0,0,0,0.0138,0.0139,0.0118,0.0119,0.0114,0.0092,0.0085,0.0074,0.005,0.0042,0.0015,-0.0016,-0.0052,-0.0071,-0.0104,-0.0145,-0.0151,-0.0159,-0.0161,-0.0162,-0.0154,-0.0177,-0.018,-0.0151,-0.0151,-0.0151,0,0,0.0142,0.0138,0.0136,0.0123,0.011,0.0096,0.0091,0.0077,0.0063,0.0033,0.0007,-0.0028,-0.0064,-0.0105,-0.0123,-0.0119,-0.0174,-0.0163,-0.0164,-0.0155,-0.0178,-0.0181,-0.0184,-0.0152,-0.0151,-0.0151,0,0,0.0149,0.0151,0.015,0.0137,0.0117,0.0102,0.0098,0.007,0.0062,0.0023,-0.0,-0.0039,-0.0092,-0.0119,-0.0141,-0.017,-0.0182,-0.0181,-0.0176,-0.02,-0.0202,-0.0204,-0.022,-0.0223,-0.018,-0.018,-0.018,0,0.0156,0.0153,0.0146,0.0139,0.013,0.0106,0.0094,0.0077,0.0036,0.0024,0.0018,-0.0062,-0.0097,-0.0144,-0.0154,-0.0174,-0.0185,-0.017,-0.0201,-0.0204,-0.0206,-0.0221,-0.0225,-0.018,-0.018,-0.018,-0.018,0,0.0156,0.0153,0.0153,0.0136,0.0124,0.0111,0.0086,0.0069,0.0051,0.0027,-0.0019,-0.0069,-0.0109,-0.0133,-0.0158,-0.0194,-0.0197,-0.0202,-0.0196,-0.0209,-0.0224,-0.0228,-0.0181,-0.0181,-0.0181,-0.0181,0,0,0.0172,0.0157,0.0157,0.0151,0.0122,0.0113,0.0091,0.0066,0.0058,0.0011,-0.0009,-0.0079,-0.0101,-0.0125,-0.0162,-0.0189,-0.0224,-0.0202,-0.0203,-0.0215,-0.0272,-0.0272,-0.0276,-0.0238,-0.0239,-0.0239,-0.0278,0,0.0174,0.0171,0.0157,0.0144,0.0138,0.0113,0.01,0.0071,0.0046,0.002,-0.0031,-0.0065,-0.0098,-0.012,-0.0156,-0.0209,-0.0234,-0.0213,-0.0259,-0.026,-0.0257,-0.0281,-0.0241,-0.0281,-0.0282,-0.0283,-0.0283,0,0.0175,0.0177,0.0173,0.0156,0.0153,0.0142,0.0125,0.0107,0.0065,0.0045,0.0001,-0.0036,-0.0093,-0.0111,-0.0195,-0.0181,-0.0223,-0.026,-0.0262,-0.0259,-0.0267,-0.0265,-0.029,-0.0289,-0.0289,-0.0288,-0.0288,0,0.0195,0.0183,0.0187,0.0181,0.0161,0.0159,0.0148,0.0116,0.0115,0.0066,0.0061,-0.0017,-0.0043,-0.0113,-0.0196,-0.0195,-0.0282,-0.0287,-0.0324,-0.0325,-0.0309,-0.0306,-0.0336,-0.0336,-0.0336,-0.0336,-0.0336,0,0.02,0.02,0.0204,0.0206,0.0215,0.0189,0.0196,0.0171,0.0152,0.0155,0.0084,0.0066,-0.0043,-0.0109,-0.0187,-0.027,-0.0274,-0.0325,-0.0337,-0.0311,-0.0308,-0.0312,-0.0308,-0.0337,-0.0337,-0.0337,-0.0336,0,0.0209,0.021,0.0218,0.022,0.0224,0.0233,0.024,0.0249,0.0224,0.0227,0.0218,0.0132,0.0038,-0.0072,-0.0191,-0.0244,-0.0333,-0.036,-0.0323,-0.0332,-0.036,-0.0357,-0.0398,-0.0399,-0.0399,-0.0399,-0.0399,0,0.0208,0.0219,0.0242,0.0263,0.0267,0.0284,0.0302,0.0285,0.0303,0.027,0.0277,0.0184,0.0115,-0.0055,-0.0181,-0.0331,-0.0349,-0.0381,-0.0375,-0.036,-0.0368,-0.0364,-0.036,-0.04,-0.04,-0.04,-0.04,0,0.0214,0.0232,0.0245,0.0295,0.0324,0.0349,0.0375,0.0392,0.0383,0.0376,0.0325,0.022,0.0108,-0.005,-0.0171,-0.0278,-0.0356,-0.0384,-0.0384,-0.0379,-0.0363,-0.0369,-0.0365,-0.0401,-0.0401,-0.0401,-0.0401,0,0.0225,0.024,0.0276,0.0316,0.0362,0.0395,0.0401,0.0416,0.0421,0.0398,0.0377,0.0238,0.0158,-0.0023,-0.0137,-0.0247,-0.0267,-0.028,-0.0286,-0.0286,-0.0249,-0.0211,-0.0215,0,0,0,0,0,0.0239,0.026,0.0296,0.0334,0.0384,0.0405,0.0446,0.0452,0.0459,0.0438,0.0409,0.03,0.0111,0.0013,-0.0095,-0.0148,-0.029,-0.0276,-0.0309,-0.0408,-0.0406,-0.0382,0,0,0,0,0,0,0.0242,0.028,0.0293,0.0351,0.0381,0.0424,0.0447,0.0448,0.0433,0.0425,0.0316,0.0287,0.0089,0.0169,-0.0097,-0.0132,-0.0162,-0.0363,-0.0365,-0.0408,-0.0407,-0.0406,-0.0381,0,0,0,0,0]}]]